Wind_Speed
3 2 3 2 2 3 2 2 2 2 2 2 2 2 1 1 1 3 4 5 5 6 7 8 9 9 10 11 11 12 13 13 14 14 14 15 15 16 16 16 17 18 18 18 18 19 19 19 19
1 1 1 1 2 2 2 1 1 2 2 2 1 1 1 1 1 2 3 4 4 5 7 7 8 9 9 10 11 11 12 13 14 14 15 15 16 16 16 17 17 17 17 18 18 18 19 19 19
1 1 1 1 1 1 1 1 0 1 1 1 0 0 0 1 2 3 4 4 4 5 6 7 8 8 9 10 11 11 12 13 14 14 15 15 16 16 16 17 17 17 18 18 18 18 19 19 19
2 3 3 3 2 2 2 2 1 1 1 2 2 1 1 2 3 3 4 5 5 5 6 7 8 8 9 10 11 12 13 13 14 14 15 15 16 16 17 17 17 18 18 18 19 19 19 19 19
5 5 5 4 4 4 4 4 4 3 3 3 3 2 3 4 4 5 5 6 7 7 7 8 9 9 10 11 12 13 13 14 14 15 16 16 16 17 17 18 18 19 19 19 19 19 19 19 19
7 7 7 7 6 6 6 6 6 5 5 5 5 5 7 7 7 7 7 9 10 10 10 10 11 11 12 12 13 14 14 15 15 16 17 17 18 18 19 19 19 20 20 20 20 20 20 20 20
10 10 10 9 9 8 8 8 8 8 8 8 8 7 9 10 10 9 10 11 12 13 12 12 12 13 13 14 15 15 16 16 17 17 18 19 19 20 20 21 21 21 21 22 22 22 22 22 22
13 13 12 12 11 11 11 10 11 11 10 10 10 9 10 12 12 12 11 12 13 15 15 15 15 15 15 16 16 17 17 18 19 19 20 20 21 22 22 22 23 23 23 24 24 24 24 24 24
16 16 15 14 14 13 13 13 13 13 13 12 12 11 12 13 14 13 13 13 14 15 16 17 17 17 17 18 18 19 19 19 20 20 21 21 22 23 23 23 24 25 25 26 26 27 27 27 27
18 18 17 17 16 15 16 15 15 15 15 15 14 14 14 14 15 15 15 15 15 16 17 18 18 18 19 19 19 20 20 21 21 22 22 23 24 24 25 25 25 26 27 27 28 28 29 29 30
20 20 20 19 18 18 18 17 17 17 18 18 17 16 16 16 16 17 17 16 16 16 17 18 19 19 19 20 20 21 21 22 22 23 23 24 24 25 26 26 27 27 28 29 29 30 30 31 32
23 23 22 21 21 20 20 19 18 18 20 20 19 18 18 18 18 18 18 18 17 17 17 19 19 19 20 20 21 21 22 22 23 24 24 25 26 26 27 28 28 29 29 30 31 31 32 33 34
25 24 24 23 23 23 22 21 20 21 21 21 21 20 20 20 20 19 19 20 19 18 18 19 20 20 21 21 21 22 22 23 24 24 25 26 26 27 28 28 29 30 30 31 31 32 33 34 35
27 27 26 26 25 25 24 23 22 23 23 23 22 22 21 21 21 20 20 20 20 20 19 20 20 21 21 22 22 22 23 23 24 25 26 26 27 27 28 29 29 30 30 31 32 33 33 34 35
30 29 29 29 28 27 26 25 25 25 24 23 23 23 22 22 21 20 20 20 21 21 20 21 21 21 22 22 22 23 24 24 25 25 26 26 27 27 28 29 30 31 31 32 33 33 34 35 35
32 32 31 31 29 28 27 27 27 26 25 24 24 23 23 22 21 21 21 21 21 22 21 21 21 22 22 23 23 24 24 25 25 26 26 27 28 28 29 29 30 31 31 32 33 33 34 35 36
34 34 33 32 31 30 29 28 28 27 26 25 25 24 24 23 23 22 22 22 22 22 22 22 22 22 23 23 24 25 25 26 26 27 28 28 29 29 29 30 31 31 32 32 33 34 34 35 36
35 35 34 33 33 32 31 30 29 28 27 26 25 25 25 24 23 23 22 22 22 22 22 22 22 23 24 24 25 26 26 27 27 28 28 29 29 30 30 31 31 31 32 32 33 34 35 36 37
35 35 34 34 34 33 31 31 29 29 28 26 26 26 25 24 23 23 23 23 23 23 23 23 23 24 24 25 26 26 27 27 28 28 29 30 30 31 31 31 31 32 33 34 35 36 37 38 39
34 34 33 34 35 33 33 31 30 28 28 26 25 25 25 24 24 23 23 23 23 23 23 23 24 24 25 26 27 27 28 28 29 29 30 31 31 32 32 32 33 34 35 36 37 38 39 40 41
33 32 32 34 34 34 34 31 29 29 29 27 25 25 26 25 24 24 24 24 24 24 24 24 24 25 26 27 28 28 29 30 30 30 31 31 32 33 34 34 35 36 37 38 39 40 41 41 43
32 32 33 34 35 34 34 32 28 28 28 27 25 25 25 25 24 24 24 24 24 24 24 24 25 26 27 28 28 29 30 30 31 32 32 33 34 35 36 37 37 38 40 41 41 42 43 44 44
31 32 33 34 35 35 33 34 27 28 26 26 25 24 25 24 24 24 24 24 24 24 25 25 26 26 27 28 29 30 31 32 32 33 34 35 36 37 38 39 39 40 41 42 43 44 45 46 46
31 32 33 35 36 35 30 34 28 25 25 26 25 24 24 24 24 24 24 24 24 25 25 26 26 27 28 30 31 32 32 33 34 35 36 37 38 39 40 41 42 42 44 45 46 46 48 49 50
31 31 33 35 35 33 31 33 28 24 25 25 24 24 24 24 24 24 24 24 25 25 26 27 28 29 30 31 32 33 34 35 36 37 38 39 40 41 42 43 44 45 46 47 48 49 50 51 52
31 32 33 35 35 33 32 32 26 23 24 25 24 23 24 24 24 24 24 25 25 26 27 28 29 30 32 33 34 35 36 37 38 39 40 41 42 43 44 45 46 47 48 49 50 51 53 54 55
32 32 33 35 36 35 33 31 27 23 23 24 23 23 24 24 24 24 25 25 26 27 28 30 31 32 33 34 35 37 38 39 40 42 43 43 44 45 46 46 47 49 50 51 52 53 55 56 57
34 33 34 36 36 36 33 29 26 23 23 23 23 24 24 24 24 25 25 26 27 29 30 31 32 34 35 36 38 39 40 41 42 44 45 45 46 47 47 48 49 50 52 53 54 55 57 58 59
33 34 34 36 36 34 32 28 25 25 24 24 24 24 24 25 25 25 26 27 28 29 31 32 34 35 37 38 40 41 42 43 44 45 46 46 47 48 49 50 51 52 53 55 56 57 59 60 61
33 32 32 33 33 32 32 29 25 26 25 26 26 25 25 25 26 27 28 29 30 31 32 34 36 37 39 40 41 42 43 44 45 46 47 47 48 49 50 51 52 54 55 56 58 59 60 61 62
Wind_Direction
74 77 74 67 64 64 70 75 99 116 117 120 145 160 160 206 237 249 253 251 249 250 254 259 262 264 267 269 272 274 275 276 277 277 277 277 277 277 276 275 275 274 274 273 272 272 272 272 272
67 60 61 45 40 52 53 64 84 93 104 106 120 146 144 257 270 270 271 267 260 258 259 261 264 266 268 270 272 274 276 277 278 278 278 277 277 277 277 276 275 274 274 273 272 271 271 271 271
310 301 295 319 354 21 351 299 18 67 75 73 70 75 104 280 296 292 285 280 272 266 267 268 270 271 272 273 274 274 276 277 277 278 278 278 278 278 277 276 275 275 274 273 272 271 270 270 269
273 274 277 287 302 306 286 281 300 321 325 331 338 342 300 292 296 295 294 291 287 279 274 275 276 277 276 276 276 276 276 276 277 277 278 279 279 278 278 277 276 275 274 273 272 271 270 268 268
264 269 272 279 281 287 286 289 294 297 305 309 308 309 291 289 293 295 295 294 294 293 287 282 280 279 278 278 277 276 275 275 276 276 277 278 278 278 278 277 276 275 274 273 272 270 269 268 267
258 265 269 274 276 281 281 285 289 288 289 290 290 291 289 289 289 292 292 291 291 292 292 287 283 280 279 279 279 278 276 276 276 276 276 277 277 277 277 277 276 275 274 273 271 269 268 267 265
258 263 268 272 274 277 279 282 283 283 281 282 286 288 287 287 288 289 289 288 289 290 290 288 286 283 281 280 279 278 277 277 276 276 276 276 276 276 276 276 275 275 274 273 270 269 267 266 265
258 261 265 270 272 274 276 279 280 280 279 279 282 283 283 285 288 287 285 285 286 287 287 287 285 284 282 281 280 279 278 278 278 277 276 276 276 276 275 275 275 274 273 272 270 269 268 266 265
258 260 264 268 270 271 270 272 275 278 280 281 280 280 280 283 287 287 285 283 282 283 284 284 284 283 283 283 282 280 280 279 279 278 277 276 275 275 275 275 274 273 272 271 270 269 268 267 266
258 260 263 267 268 269 269 271 274 276 279 279 281 282 283 284 285 286 285 283 281 281 281 282 282 283 283 283 283 282 281 280 279 278 277 277 276 275 275 275 274 273 272 271 271 270 269 268 267
257 259 262 264 265 266 267 269 270 273 276 278 280 280 282 285 285 286 286 284 282 280 280 282 283 284 284 283 283 282 282 281 280 279 279 278 277 276 276 276 275 274 273 272 271 270 270 269 268
257 259 261 262 263 264 266 268 269 271 273 276 277 278 280 283 285 286 286 285 283 281 280 282 284 284 284 285 284 283 283 282 282 281 280 279 278 278 278 277 277 276 275 274 273 272 271 270 269
256 257 259 260 261 263 265 266 268 271 273 274 275 276 277 279 281 283 283 283 282 280 279 281 282 283 284 285 285 284 283 282 282 282 281 281 281 280 280 279 278 278 277 276 275 274 273 272 271
254 256 257 257 258 261 263 266 267 270 272 273 273 274 275 276 278 280 279 280 280 280 280 280 281 282 284 284 284 284 284 283 283 283 283 282 282 281 281 280 279 278 278 277 276 276 275 274 273
252 254 255 256 258 260 263 265 266 269 270 270 271 272 273 275 277 277 277 277 278 278 279 279 280 282 282 283 284 284 285 285 285 285 284 283 282 281 280 280 279 279 279 278 278 278 277 276 276
252 253 255 257 258 260 263 265 267 268 268 268 269 270 271 273 275 275 276 276 276 276 278 278 279 280 281 283 284 284 285 286 286 285 285 285 284 282 281 280 280 279 279 279 279 279 278 277 276
253 253 255 257 258 260 262 263 266 267 266 266 267 268 270 272 273 274 274 274 274 275 276 277 278 279 281 283 284 285 285 286 286 286 286 285 285 284 283 282 281 281 280 280 279 279 278 278 277
254 254 255 256 257 258 260 261 263 264 265 265 265 266 268 269 271 272 272 272 273 274 275 276 277 278 280 282 284 285 286 286 286 286 286 285 285 285 285 283 282 282 281 281 281 280 280 279 279
254 254 253 254 256 257 258 259 261 263 264 263 263 264 265 267 268 268 270 270 271 272 274 276 277 279 281 283 284 285 285 285 286 286 286 285 285 285 285 284 283 283 283 282 282 282 281 281 280
254 253 253 254 256 258 257 257 259 262 262 262 262 263 264 265 265 265 266 268 269 271 273 275 278 280 282 283 285 286 286 286 286 286 285 286 286 285 284 284 284 284 284 283 283 283 283 283 282
254 253 254 255 256 257 258 257 259 260 262 262 261 262 262 262 262 263 264 266 268 270 273 275 278 280 282 284 286 287 287 286 286 286 286 286 286 286 285 284 284 284 285 285 285 285 285 284 284
253 254 254 255 256 257 260 259 258 260 261 261 260 260 260 260 260 261 263 265 268 270 273 276 279 281 283 285 286 287 287 286 286 287 287 287 287 286 286 286 286 286 286 286 286 286 286 285 285
251 252 253 253 255 257 260 262 255 260 260 260 259 259 258 257 257 258 261 264 267 271 274 277 280 282 284 285 286 287 287 287 287 288 288 288 288 287 287 287 287 287 287 287 287 287 287 287 287
248 249 252 254 257 258 259 262 260 259 259 259 259 257 257 256 256 258 261 264 268 271 275 278 281 283 285 286 287 287 287 287 288 289 289 289 288 288 288 288 288 288 288 288 288 288 288 288 288
247 249 252 254 257 260 258 260 264 260 258 258 258 256 256 256 257 259 262 265 268 272 275 279 282 284 286 287 287 288 288 289 290 290 290 290 290 289 289 289 289 289 289 289 288 289 289 289 289
246 247 251 255 257 258 259 260 262 259 258 257 258 257 257 259 260 261 264 266 270 273 277 280 283 285 287 288 288 289 289 290 290 291 291 291 290 290 290 290 290 290 289 289 289 290 290 290 290
245 247 250 253 256 258 259 261 259 256 256 255 256 257 258 261 263 264 266 268 271 275 278 281 284 286 288 289 290 290 290 290 291 291 291 292 291 291 291 291 290 290 290 290 290 291 291 291 292
246 247 248 252 256 259 259 259 259 255 255 256 258 258 259 262 265 267 268 271 274 277 280 282 284 287 289 290 290 291 291 291 291 292 292 292 292 292 292 292 292 292 292 292 292 292 292 293 293
247 247 249 251 254 258 259 258 258 259 258 258 259 260 262 265 266 268 270 273 276 279 282 283 286 288 289 290 291 292 292 293 293 293 293 293 293 293 293 293 293 293 293 293 293 293 294 294 294
245 246 246 248 252 255 257 257 258 260 260 261 262 263 265 267 268 269 272 275 278 280 283 285 287 289 290 291 292 293 293 294 294 294 294 294 294 294 294 294 294 294 294 294 294 295 295 295 295
Height
5878 5877 5877 5878 5878 5878 5877 5877 5876 5876 5876 5876 5876 5876 5877 5877 5877 5879 5877 5876 5876 5876 5876 5876 5877 5877 5877 5877 5877 5877 5877 5877 5877 5877 5877 5877 5877 5877 5877 5876 5876 5875 5875 5874 5874 5873 5873 5873 5872
5878 5878 5878 5878 5878 5878 5878 5877 5876 5876 5876 5875 5876 5876 5876 5876 5876 5876 5875 5875 5875 5875 5875 5875 5875 5875 5875 5875 5875 5875 5875 5875 5875 5875 5874 5874 5874 5874 5873 5873 5873 5872 5871 5871 5870 5870 5869 5869 5869
5878 5878 5879 5878 5877 5878 5878 5877 5876 5876 5875 5875 5875 5876 5876 5875 5875 5875 5874 5874 5874 5874 5873 5873 5873 5873 5873 5873 5873 5873 5873 5873 5872 5872 5872 5871 5871 5871 5870 5870 5869 5869 5868 5867 5867 5866 5866 5865 5865
5878 5878 5879 5878 5877 5877 5877 5877 5876 5875 5875 5875 5875 5875 5875 5875 5875 5874 5873 5873 5872 5872 5872 5872 5871 5871 5871 5871 5871 5870 5870 5870 5870 5869 5869 5868 5868 5868 5867 5866 5866 5865 5865 5864 5863 5863 5862 5862 5861
5877 5878 5878 5877 5877 5877 5876 5876 5875 5875 5874 5874 5874 5874 5874 5874 5874 5873 5872 5871 5871 5871 5870 5870 5869 5869 5869 5869 5868 5868 5868 5867 5867 5867 5866 5865 5865 5864 5864 5863 5862 5862 5861 5860 5859 5859 5858 5858 5857
5877 5876 5876 5876 5876 5876 5875 5875 5874 5874 5873 5873 5873 5873 5872 5872 5872 5872 5871 5870 5869 5868 5868 5868 5867 5867 5867 5866 5866 5865 5865 5864 5864 5863 5863 5862 5861 5861 5860 5859 5858 5858 5857 5856 5855 5855 5854 5853 5853
5875 5874 5874 5874 5874 5874 5874 5873 5872 5872 5871 5871 5871 5871 5870 5870 5870 5870 5869 5868 5866 5866 5865 5865 5865 5864 5864 5863 5863 5862 5862 5861 5860 5860 5859 5858 5858 5857 5856 5855 5854 5853 5853 5852 5851 5850 5850 5849 5849
5872 5873 5872 5872 5872 5873 5872 5871 5870 5870 5869 5869 5869 5869 5868 5867 5867 5867 5867 5866 5864 5863 5862 5862 5861 5861 5860 5860 5859 5859 5858 5858 5857 5856 5855 5854 5853 5852 5852 5851 5850 5849 5848 5847 5846 5846 5845 5844 5844
5869 5871 5870 5870 5870 5870 5869 5869 5868 5867 5867 5866 5866 5866 5865 5864 5864 5864 5864 5863 5862 5860 5859 5858 5858 5857 5857 5856 5855 5855 5854 5853 5853 5852 5851 5850 5849 5848 5847 5846 5845 5844 5843 5842 5841 5840 5840 5839 5838
5866 5866 5867 5867 5867 5867 5866 5866 5865 5865 5864 5863 5863 5862 5861 5861 5860 5860 5860 5860 5859 5857 5856 5855 5854 5853 5853 5852 5851 5850 5850 5849 5848 5847 5846 5845 5844 5843 5842 5841 5840 5839 5838 5837 5836 5835 5834 5833 5833
5862 5862 5863 5863 5863 5863 5862 5862 5862 5862 5861 5860 5859 5859 5858 5857 5857 5856 5856 5855 5855 5854 5852 5851 5850 5849 5848 5848 5847 5846 5845 5844 5843 5842 5841 5840 5839 5838 5837 5836 5834 5833 5832 5831 5830 5829 5828 5827 5826
5858 5858 5858 5859 5859 5859 5858 5858 5858 5858 5857 5856 5856 5855 5854 5853 5853 5852 5851 5851 5850 5850 5849 5847 5846 5845 5844 5843 5842 5841 5840 5839 5838 5837 5836 5835 5834 5833 5831 5830 5829 5827 5826 5825 5824 5823 5821 5820 5819
5853 5853 5854 5854 5854 5854 5854 5854 5854 5853 5853 5852 5851 5851 5850 5849 5849 5848 5847 5846 5846 5846 5845 5843 5842 5841 5840 5839 5838 5837 5835 5834 5833 5832 5831 5830 5828 5827 5826 5824 5823 5821 5820 5819 5817 5816 5815 5813 5812
5847 5848 5848 5849 5849 5849 5849 5849 5849 5848 5848 5848 5847 5846 5845 5845 5844 5844 5843 5842 5841 5841 5840 5839 5838 5837 5835 5834 5833 5832 5830 5829 5828 5827 5825 5824 5823 5821 5820 5818 5816 5815 5813 5812 5811 5809 5808 5806 5805
5841 5842 5843 5843 5843 5844 5845 5845 5844 5843 5843 5843 5842 5841 5840 5840 5839 5839 5838 5837 5836 5836 5835 5835 5833 5832 5831 5829 5828 5827 5825 5824 5823 5821 5820 5818 5817 5815 5814 5812 5810 5808 5807 5805 5803 5802 5800 5799 5797
5834 5836 5837 5837 5838 5838 5841 5840 5839 5838 5838 5837 5837 5836 5835 5835 5834 5834 5833 5832 5831 5831 5830 5830 5829 5827 5826 5825 5823 5822 5820 5819 5817 5816 5814 5812 5811 5809 5807 5805 5803 5802 5800 5798 5796 5794 5793 5791 5789
5828 5829 5830 5832 5832 5832 5833 5834 5833 5832 5832 5832 5831 5831 5830 5830 5829 5829 5828 5827 5826 5826 5825 5824 5823 5822 5821 5820 5818 5816 5815 5813 5811 5810 5808 5806 5804 5802 5800 5798 5796 5794 5792 5790 5789 5787 5785 5783 5781
5821 5822 5824 5825 5825 5826 5826 5827 5827 5826 5826 5826 5826 5825 5825 5824 5824 5823 5822 5822 5821 5820 5820 5819 5818 5817 5815 5814 5812 5811 5809 5807 5805 5803 5801 5799 5797 5795 5793 5791 5789 5787 5785 5783 5781 5779 5777 5775 5773
5813 5815 5817 5818 5817 5819 5820 5820 5821 5820 5820 5820 5820 5819 5819 5818 5818 5817 5817 5816 5815 5815 5814 5813 5812 5811 5810 5808 5807 5805 5803 5801 5799 5797 5795 5792 5790 5788 5786 5784 5782 5779 5777 5775 5773 5771 5768 5766 5763
5806 5807 5809 5810 5810 5811 5813 5814 5814 5814 5814 5814 5814 5813 5813 5812 5812 5811 5811 5810 5810 5809 5808 5807 5806 5805 5804 5802 5800 5798 5796 5794 5792 5790 5788 5785 5783 5781 5778 5776 5774 5771 5769 5766 5764 5761 5759 5756 5753
5799 5801 5802 5802 5803 5803 5805 5808 5808 5808 5807 5808 5808 5807 5806 5806 5805 5805 5805 5804 5804 5803 5802 5801 5800 5799 5797 5795 5794 5792 5789 5787 5785 5783 5780 5778 5775 5773 5770 5768 5765 5763 5760 5757 5754 5752 5749 5747 5743
5792 5793 5794 5794 5795 5796 5798 5799 5802 5801 5801 5801 5801 5800 5800 5799 5799 5799 5798 5798 5798 5797 5796 5795 5794 5792 5791 5789 5787 5785 5783 5780 5778 5775 5773 5770 5767 5765 5762 5759 5756 5753 5750 5748 5745 5742 5739 5736 5733
5785 5785 5786 5787 5787 5789 5790 5790 5796 5794 5794 5794 5794 5794 5793 5793 5793 5792 5792 5792 5791 5791 5790 5788 5787 5785 5784 5782 5780 5778 5775 5773 5770 5767 5765 5762 5759 5756 5753 5750 5747 5744 5741 5737 5734 5731 5728 5724 5721
5777 5778 5778 5779 5780 5783 5785 5782 5787 5788 5787 5787 5788 5787 5786 5786 5786 5786 5786 5785 5785 5784 5783 5782 5780 5778 5777 5774 5772 5770 5767 5765 5762 5759 5756 5753 5750 5747 5743 5740 5737 5733 5730 5727 5723 5720 5716 5713 5709
5770 5772 5772 5772 5773 5776 5777 5776 5781 5782 5781 5780 5781 5781 5780 5780 5780 5780 5779 5779 5778 5777 5776 5774 5773 5771 5769 5767 5764 5762 5759 5756 5753 5750 5747 5744 5740 5737 5734 5730 5726 5723 5719 5716 5712 5708 5704 5700 5697
5763 5764 5766 5766 5766 5768 5769 5769 5774 5775 5774 5773 5774 5774 5774 5774 5774 5773 5773 5772 5771 5770 5769 5767 5765 5763 5761 5758 5756 5753 5750 5747 5744 5741 5738 5734 5731 5727 5723 5719 5715 5712 5708 5704 5700 5696 5692 5687 5683
5755 5757 5759 5758 5758 5760 5761 5764 5767 5767 5767 5767 5768 5768 5767 5767 5767 5767 5766 5765 5764 5763 5761 5759 5757 5755 5752 5750 5747 5744 5741 5738 5735 5731 5728 5724 5720 5716 5712 5708 5704 5700 5696 5692 5687 5683 5678 5674 5669
5748 5750 5750 5750 5751 5752 5754 5757 5759 5760 5760 5761 5761 5761 5761 5761 5760 5760 5759 5758 5757 5755 5753 5751 5749 5746 5744 5741 5738 5735 5732 5728 5724 5721 5717 5713 5709 5705 5701 5696 5692 5688 5683 5679 5674 5669 5664 5659 5654
5741 5742 5743 5743 5744 5746 5747 5752 5752 5753 5753 5754 5754 5754 5754 5754 5753 5752 5751 5750 5749 5747 5745 5743 5740 5738 5735 5732 5728 5725 5721 5718 5714 5710 5706 5702 5697 5693 5689 5684 5680 5675 5670 5665 5660 5655 5650 5645 5639
5732 5734 5735 5737 5738 5739 5740 5746 5745 5745 5745 5746 5746 5747 5747 5746 5746 5745 5743 5742 5740 5739 5736 5734 5731 5728 5725 5722 5718 5715 5711 5707 5703 5699 5694 5690 5686 5681 5676 5672 5667 5662 5656 5651 5646 5641 5635 5629 5623